Saint James, MN

3:48 AM CDT on August 25, 2016 (GMT -0500)
Saint James Municipal

Weather History for KJYG - February, 2013

Change the Weather History Date:

Saturday, February 9, 2013

  Actual Average Record
Temperature  
Mean Temperature 32 °F -  
Max Temperature 35 °F 26 °F 118 °F (1999)
Min Temperature 28 °F 5 °F -23 °F (1979)
Degree Days  
Heating Degree Days 34    
Moisture  
Dew Point 25 °F    
Average Humidity 75    
Maximum Humidity 81    
Minimum Humidity 70    
Precipitation  
Precipitation 0.00 in - - ()
Sea Level Pressure  
Sea Level Pressure 30.00 in    
Wind  
Wind Speed 17 mph (SE)    
Max Wind Speed 25 mph    
Max Gust Speed 30 mph    
Visibility 7 miles    
Events      
Averages and records for this station are not official NWS values.
T = Trace of Precipitation, MM = Missing Value Source: NWS Daily Summary

Daily Weather History Graph

Daily Weather History Graph

Search for Another Location

Airport or City:

Trip Planner

Search our weather history database for the weather conditions in past years. The results will help you decide how hot, cold, wet, or windy it might be!

Date:

Astronomy

Feb. 09, 2013 Rise Set
Actual Time 7:25 AM CST 5:40 PM CST
Civil Twilight 6:55 AM CST 6:10 PM CST
Nautical Twilight 6:21 AM CST 6:44 PM CST
Astronomical Twilight 5:47 AM CST 7:17 PM CST
Moon 6:37 AM CST (2/9) 5:25 PM CST (2/9)
Length of Visible Light 11h 14m
Length of Day
10h 14m
Waning Crescent, 0% of the Moon is Illuminated
Feb 9
Waning Crescent
Feb 10
New
Feb 17
First Quarter
Feb 25
Full
Mar 4
Last Quarter

Hourly Weather History & Observations

Time (CST) Temp. Windchill Dew Point Humidity Pressure Visibility Wind Dir Wind Speed Gust Speed Precip Events Conditions
12:15 AM 28.4 °F 15.8 °F 21.2 °F 74% 30.18 in 7.0 mi SSE 18.4 mph 24.2 mph N/A   Overcast
12:35 AM 28.4 °F 16.6 °F 21.2 °F 74% 30.18 in 7.0 mi SSE 16.1 mph - N/A   Overcast
12:55 AM 28.4 °F 16.2 °F 21.2 °F 74% 30.17 in 7.0 mi SSE 17.3 mph 21.9 mph N/A   Overcast
1:15 AM 28.4 °F 15.8 °F 21.2 °F 74% 30.16 in 7.0 mi SSE 18.4 mph - N/A   Overcast
1:34 AM 28.4 °F 15.8 °F 21.2 °F 74% 30.15 in 10.0 mi SSE 18.4 mph 23.0 mph N/A   Overcast
1:55 AM 28.4 °F 17.5 °F 21.2 °F 74% 30.16 in 10.0 mi SSE 13.8 mph 19.6 mph N/A   Overcast
2:15 AM 28.4 °F 15.4 °F 21.2 °F 74% 30.15 in 10.0 mi SE 19.6 mph - N/A   Overcast
2:34 AM 28.4 °F 15.4 °F 21.2 °F 74% 30.14 in 7.0 mi SE 19.6 mph 26.5 mph N/A   Overcast
2:55 AM 28.4 °F 15.4 °F 21.2 °F 74% 30.12 in 7.0 mi SE 19.6 mph 27.6 mph N/A   Overcast
3:15 AM 28.4 °F 15.1 °F 21.2 °F 74% 30.11 in 7.0 mi SSE 20.7 mph 28.8 mph N/A   Overcast
3:35 AM 28.4 °F 15.1 °F 21.2 °F 74% 30.09 in 7.0 mi SSE 20.7 mph 26.5 mph N/A   Overcast
3:55 AM 28.4 °F 16.2 °F 21.2 °F 74% 30.09 in 7.0 mi SSE 17.3 mph 26.5 mph N/A   Overcast
4:15 AM 28.4 °F 13.8 °F 21.2 °F 74% 30.08 in 7.0 mi SSE 25.3 mph 29.9 mph N/A   Overcast
4:34 AM 28.4 °F 15.8 °F 21.2 °F 74% 30.08 in 7.0 mi SSE 18.4 mph 24.2 mph N/A   Overcast
4:55 AM 28.4 °F 15.8 °F 21.2 °F 74% 30.08 in 7.0 mi SSE 18.4 mph - N/A   Overcast
5:15 AM 28.4 °F 15.8 °F 21.2 °F 74% 30.08 in 7.0 mi SSE 18.4 mph 24.2 mph N/A   Overcast
5:27 AM 28.4 °F 16.2 °F 21.2 °F 74% 30.07 in 7.0 mi SSE 17.3 mph - N/A   Overcast
5:55 AM 28.4 °F 17.5 °F 21.2 °F 74% 30.06 in 7.0 mi SSE 13.8 mph - N/A   Overcast
6:15 AM 28.4 °F - 21.2 °F 74% 30.05 in 10.0 mi North - - N/A   Overcast
6:35 AM 28.4 °F 15.4 °F 21.2 °F 74% 30.06 in 10.0 mi SSE 19.6 mph 24.2 mph N/A   Overcast
6:55 AM 28.4 °F 16.2 °F 21.2 °F 74% 30.06 in 10.0 mi SSE 17.3 mph 28.8 mph N/A   Overcast
7:15 AM 28.4 °F 16.2 °F 21.2 °F 74% 30.07 in 10.0 mi SSE 17.3 mph 29.9 mph N/A   Overcast
7:34 AM 28.4 °F 14.1 °F 21.2 °F 74% 30.06 in 10.0 mi SSE 24.2 mph 29.9 mph N/A   Overcast
7:55 AM 28.4 °F 14.7 °F 21.2 °F 74% 30.07 in 10.0 mi SSE 21.9 mph - N/A   Overcast
8:15 AM 28.4 °F 15.4 °F 21.2 °F 74% 30.07 in 10.0 mi SSE 19.6 mph 25.3 mph N/A   Overcast
8:34 AM 28.4 °F 16.6 °F 23.0 °F 80% 30.06 in 10.0 mi SSE 16.1 mph 23.0 mph N/A   Overcast
8:55 AM 28.4 °F 17.0 °F 23.0 °F 80% 30.06 in 10.0 mi SSE 15.0 mph 23.0 mph N/A   Overcast
9:15 AM 30.2 °F 18.1 °F 24.8 °F 80% 30.05 in 7.0 mi SSE 18.4 mph 24.2 mph N/A   Overcast
9:34 AM 30.2 °F 18.9 °F 24.8 °F 80% 30.05 in 7.0 mi SSE 16.1 mph 23.0 mph N/A   Overcast
9:55 AM 30.2 °F 18.9 °F 24.8 °F 80% 30.05 in 5.0 mi SSE 16.1 mph 24.2 mph N/A   Haze
10:15 AM 30.2 °F 17.8 °F 24.8 °F 80% 30.05 in 5.0 mi SSE 19.6 mph - N/A   Haze
10:34 AM 30.2 °F 18.5 °F 24.8 °F 80% 30.05 in 7.0 mi SSE 17.3 mph - N/A   Overcast
10:55 AM 32.0 °F 20.8 °F 24.8 °F 75% 30.05 in 5.0 mi SSE 17.3 mph 21.9 mph N/A   Haze
11:15 AM 32.0 °F 20.5 °F 26.6 °F 80% 30.04 in 5.0 mi SSE 18.4 mph 23.0 mph N/A   Haze
11:35 AM 33.8 °F 22.2 °F 26.6 °F 75% 30.02 in 5.0 mi SSE 20.7 mph 25.3 mph N/A   Haze
11:55 AM 33.8 °F 22.8 °F 26.6 °F 75% 30.02 in 5.0 mi SSE 18.4 mph - N/A   Haze
12:15 PM 33.8 °F 23.9 °F 26.6 °F 75% 30.00 in 5.0 mi SSE 15.0 mph - N/A   Haze
12:35 PM 33.8 °F 22.5 °F 26.6 °F 75% 29.99 in 7.0 mi SSE 19.6 mph 24.2 mph N/A   Overcast
12:55 PM 33.8 °F 22.8 °F 26.6 °F 75% 29.98 in 5.0 mi SSE 18.4 mph - N/A   Haze
1:15 PM 35.6 °F 26.6 °F 26.6 °F 70% 29.97 in 7.0 mi SSE 13.8 mph - N/A   Overcast
1:35 PM 35.6 °F 25.9 °F 26.6 °F 70% 29.96 in 7.0 mi SSE 16.1 mph 19.6 mph N/A   Overcast
1:55 PM 35.6 °F 25.9 °F 26.6 °F 70% 29.95 in 7.0 mi SSE 16.1 mph - N/A   Overcast
2:15 PM 35.6 °F 26.2 °F 28.4 °F 75% 29.94 in 5.0 mi SSE 15.0 mph 19.6 mph N/A   Haze
2:35 PM 35.6 °F 27.1 °F 28.4 °F 75% 29.93 in 5.0 mi SSE 12.7 mph 16.1 mph N/A   Haze
2:55 PM 35.6 °F 28.6 °F 28.4 °F 75% 29.93 in 5.0 mi SE 9.2 mph 16.1 mph N/A   Haze
3:14 PM 35.6 °F 28.6 °F 28.4 °F 75% 29.93 in 5.0 mi SE 9.2 mph - N/A   Haze
3:35 PM 35.6 °F 27.5 °F 28.4 °F 75% 29.92 in 5.0 mi ESE 11.5 mph - N/A   Haze
3:55 PM 35.6 °F 27.5 °F 28.4 °F 75% 29.91 in 5.0 mi ESE 11.5 mph - N/A   Haze
4:14 PM 35.6 °F 27.1 °F 28.4 °F 75% 29.90 in 5.0 mi SE 12.7 mph - N/A   Haze
4:35 PM 35.6 °F 27.1 °F 28.4 °F 75% 29.89 in 5.0 mi ESE 12.7 mph - N/A   Haze
4:55 PM 35.6 °F 27.5 °F 28.4 °F 75% 29.89 in 5.0 mi ESE 11.5 mph - N/A   Haze
5:15 PM 35.6 °F 26.2 °F 28.4 °F 75% 29.88 in 5.0 mi ESE 15.0 mph - N/A   Haze
5:35 PM 35.6 °F 26.6 °F 28.4 °F 75% 29.88 in 7.0 mi ESE 13.8 mph - N/A   Overcast
5:54 PM 35.6 °F 25.5 °F 28.4 °F 75% 29.88 in 7.0 mi ESE 17.3 mph - N/A   Overcast
6:15 PM 35.6 °F 26.2 °F 28.4 °F 75% 29.89 in 7.0 mi ESE 15.0 mph - N/A   Overcast
6:35 PM 35.6 °F 26.2 °F 28.4 °F 75% 29.90 in 7.0 mi SE 15.0 mph - N/A   Overcast
6:54 PM 35.6 °F 26.6 °F 28.4 °F 75% 29.90 in 7.0 mi SE 13.8 mph 18.4 mph N/A   Overcast
7:35 PM 35.6 °F 26.2 °F 28.4 °F 75% 29.89 in 7.0 mi SE 15.0 mph 20.7 mph N/A   Overcast
7:55 PM 33.8 °F 23.9 °F 28.4 °F 81% 29.89 in 7.0 mi SE 15.0 mph 19.6 mph N/A   Overcast
8:15 PM 33.8 °F 23.9 °F 28.4 °F 81% 29.91 in 7.0 mi SE 15.0 mph - N/A   Overcast
8:35 PM 33.8 °F 24.8 °F 26.6 °F 75% 29.89 in 7.0 mi SE 12.7 mph 17.3 mph N/A   Overcast
8:55 PM 33.8 °F 24.8 °F 26.6 °F 75% 29.89 in 7.0 mi SE 12.7 mph - N/A   Overcast
9:15 PM 33.8 °F 24.3 °F 26.6 °F 75% 29.89 in 7.0 mi ESE 13.8 mph 19.6 mph N/A   Overcast
9:35 PM 33.8 °F 23.5 °F 26.6 °F 75% 29.89 in 7.0 mi ESE 16.1 mph - N/A   Overcast
9:55 PM 33.8 °F 23.9 °F 26.6 °F 75% 29.88 in 7.0 mi SE 15.0 mph - N/A   Overcast
10:15 PM 33.8 °F 24.3 °F 26.6 °F 75% 29.88 in 7.0 mi ESE 13.8 mph 18.4 mph N/A   Overcast
10:35 PM 32.0 °F 23.0 °F 26.6 °F 80% 29.86 in 7.0 mi ESE 11.5 mph - N/A   Overcast
10:54 PM 32.0 °F 23.0 °F 26.6 °F 80% 29.85 in 7.0 mi ESE 11.5 mph - N/A   Overcast
11:15 PM 33.8 °F 25.3 °F 26.6 °F 75% 29.85 in 7.0 mi ESE 11.5 mph - N/A   Overcast
11:35 PM 33.8 °F 24.8 °F 26.6 °F 75% 29.84 in 7.0 mi ESE 12.7 mph - N/A   Overcast
11:55 PM 33.8 °F 25.8 °F 26.6 °F 75% 29.84 in 7.0 mi East 10.4 mph - N/A   Overcast